Flag for United Kingdom Weather past 2 weeks in Stockport, England, United Kingdom

Now
57 °F

Clear.


Feels Like: 57 °F
Forecast: 57 / 68 °F
Wind: No wind

Location: Manchester Airport

Current Time: Jul 29, 2014 at 1:54:10 AM

Latest Report: Jul 29, 2014 at 1:20 AM


Visibility: 10 mi

Pressure: 30.09 "Hg

Humidity: 88%

Dew point: 54 °F

Location of StockportLocation

Historic Weather in Stockport — Graph

°F

Stockport temperature yesterday

Maximum temperature yesterday: 75 °F (at 3:50 PM)
Minimum temperature yesterday: 52 °F (at 5:20 AM)
Average temperature yesterday: 64 °F

Past Weeks' High & Low Weather Summary

 TemperatureHumidityPressure
High81 °F (Jul 24, 3:20 PM)100% (Jul 15, 3:20 AM)30.27 "Hg (Jul 15, 3:20 AM)
Low46 °F (Jul 14, 4:20 AM)39% (Jul 24, 3:20 PM)29.71 "Hg (Jul 19, 5:50 PM)
Average66 °F73%30.04 "Hg
* Reported Jul 14 12:20 AM — Jul 29 12:20 AM, Stockport, Weather by CustomWeather, © 2014

Note: Actual official high and low records may vary slightly from our data, if they occured in-between our weather recording intervals... More about our weather records

Advertising

Stockport weather history for previous 24 hours

 ConditionsComfort  
Time TempWeatherWind HumidityBarometerVisibility
12:20 AM
Jul 29
57 °FClear.2 mph88%30.09 "Hg10 mi
11:50 PM
Jul 28
59 °FClear.5 mph82%30.07 "Hg10 mi
11:20 PM59 °FClear.3 mph82%30.07 "Hg10 mi
10:50 PM61 °FClear.5 mph77%30.07 "Hg10 mi
10:20 PM63 °FClear.5 mph73%30.07 "Hg10 mi
9:50 PM64 °FPassing clouds.6 mph73%30.07 "HgN/A
9:20 PM64 °FSunny.6 mph73%30.07 "Hg10 mi
8:50 PM66 °FSunny.7 mph68%30.07 "Hg10 mi
8:20 PM66 °FSunny.7 mph68%30.07 "Hg10 mi
7:50 PM68 °FSunny.12 mph69%30.07 "Hg10 mi
7:20 PM68 °FSunny.9 mph69%30.04 "Hg10 mi
6:50 PM70 °FPassing clouds.12 mph64%30.04 "HgN/A
6:20 PM72 °FPassing clouds.12 mph57%30.04 "HgN/A
5:50 PM72 °FSunny.9 mph53%30.04 "Hg10 mi
5:20 PM73 °FPassing clouds.8 mph47%30.04 "HgN/A
4:50 PM73 °FPassing clouds.9 mph47%30.04 "HgN/A
4:20 PM72 °FScattered clouds.9 mph50%30.04 "HgN/A
3:50 PM75 °FScattered clouds.5 mph41%30.04 "HgN/A
3:20 PM73 °FPassing clouds.7 mph47%30.04 "HgN/A
2:50 PM73 °FPassing clouds.7 mph47%30.04 "HgN/A
2:20 PM73 °FPassing clouds.3 mph44%30.04 "HgN/A
1:50 PM73 °FPassing clouds.2 mph47%30.04 "HgN/A
1:20 PM72 °FScattered clouds.5 mph50%30.04 "HgN/A
12:50 PM72 °FScattered clouds.5 mph53%30.04 "HgN/A
12:20 PM70 °FPassing clouds.5 mph57%30.04 "HgN/A
11:50 AM66 °FPassing clouds.2 mph60%30.04 "HgN/A
11:20 AM68 °FPassing clouds.2 mph56%30.04 "HgN/A
10:50 AM66 °FPassing clouds.5 mph64%30.04 "HgN/A
10:20 AM66 °FPassing clouds.2 mph64%30.04 "HgN/A
9:50 AM66 °FPassing clouds.2 mph64%30.04 "HgN/A
9:20 AM63 °FScattered clouds.6 mph77%30.04 "HgN/A
8:50 AM61 °FPartly sunny.2 mph83%30.04 "HgN/A
8:20 AM61 °FPartly sunny.No wind83%30.04 "HgN/A
7:50 AM59 °FScattered clouds.2 mph88%30.04 "HgN/A
7:20 AM59 °FPassing clouds.2 mph88%30.01 "HgN/A
6:50 AM57 °FScattered clouds.3 mph94%30.01 "HgN/A
6:20 AM55 °FPartly sunny.2 mph94%30.01 "HgN/A
5:50 AM54 °FPassing clouds.3 mph94%30.01 "HgN/A
5:20 AM52 °FClear.6 mph94%30.01 "Hg10 mi
4:50 AM54 °FPassing clouds.No wind100%30.01 "HgN/A
4:20 AM54 °FCool.2 mph94%30.01 "HgN/A
3:20 AM55 °FPassing clouds.No wind94%30.01 "HgN/A
2:50 AM57 °FPassing clouds.5 mph88%30.01 "HgN/A
2:20 AM57 °FClear.3 mph88%30.01 "Hg10 mi
1:50 AM57 °FClear.2 mph94%30.01 "Hg10 mi
1:20 AM57 °FPassing clouds.2 mph94%30.01 "HgN/A
Weather by CustomWeather, © 2014

See weather overviewHow to use our weather pages